[[{"header":{"parameterUnit":"m.s-1","parameterCategory":1,"la1":30.2991,"la2":30.254,"lo1":-89.0895,"lo2":-89.0444,"dy":0.0017,"dx":0.0017,"nx":28,"ny":28,"refTime":"2024-03-10T03:00:00:Z","depth":0,"parameterNumber":2,"parameterNumberName":"U-component_of_WINDS"},"data":[0,0,0,0,0,0,0,0,0,0,0,0,0,0,0,0,0,0,0,0,0,0,0,0,0,0,0,0,0,0,0,0,0,0,0,0,0,0,0,0,0,0,0,0,0,0,0,0,0,0,0,0,0,0,0,0,0,0,-0.776,-0.776,0,-0.7799,-0.78,-0.78,-0.7796,-0.7796,-0.7795,-0.7794,-0.7836,-0.7838,-0.784,0,0,0,0,0,0,0,0,0,0,0,0,0,-0.7683,-0.7684,-0.776,-0.776,-0.7761,-0.7799,-0.78,-0.78,-0.7796,-0.7795,-0.7795,-0.7794,-0.7836,-0.7838,-0.784,0,0,0,0,0,0,0,0,0,0,0,0,0,-0.7719,-0.7684,-0.776,-0.7763,-0.7764,-0.7799,-0.78,-0.78,-0.7796,-0.7795,-0.7795,-0.7794,-0.7835,-0.7838,-0.784,-0.7874,0,0,-0.7848,-0.7849,0,0,0,0,0,0,0,0,-0.7716,-0.7721,-0.7762,-0.7763,-0.7764,-0.7792,-0.7788,-0.7825,-0.7797,-0.7784,-0.7794,-0.7793,-0.7822,-0.7826,-0.7835,-0.7876,-0.7878,-0.7848,-0.785,-0.7851,-0.7851,0,0,0,0,0,0,0,-0.7714,-0.772,-0.7776,-0.7763,-0.7764,-0.7764,-0.7768,-0.7795,-0.7808,-0.7785,-0.7785,-0.779,-0.7823,-0.7833,-0.7836,-0.7879,-0.7848,-0.785,-0.7852,-0.7853,-0.795,-0.7951,0,0,0,0,0,0,-0.771,-0.7718,-0.7774,-0.7777,-0.7737,-0.7766,-0.777,-0.7784,-0.7808,-0.7811,-0.779,-0.7789,-0.7829,-0.7833,-0.7838,-0.788,-0.7851,-0.7853,-0.7855,-0.7949,-0.7951,-0.7952,0,0,0,0,0,0,-0.7709,-0.7716,-0.7773,-0.7747,-0.7754,-0.7768,-0.7783,-0.7785,-0.7795,-0.7812,-0.7814,-0.7798,-0.7828,-0.7834,-0.7865,-0.7882,-0.7854,-0.7857,-0.7948,-0.795,-0.7951,-0.7965,0,0,0,0,0,0,-0.7707,-0.7715,-0.7728,-0.7747,-0.7756,-0.7799,-0.7784,-0.7787,-0.78,-0.7799,-0.782,-0.7823,-0.7828,-0.7862,-0.7868,-0.7885,-0.7859,-0.7947,-0.7949,-0.7951,-0.7963,-0.7967,-0.797,0,0,0,0,0,-0.7704,-0.7731,-0.7729,-0.7736,-0.7772,-0.78,-0.7805,-0.7811,-0.7801,-0.7814,-0.7825,-0.7822,-0.7878,-0.7865,-0.7872,-0.789,-0.7946,-0.7948,-0.7951,-0.7962,-0.7966,-0.797,0,0,0,0,0,0,-0.7713,-0.7733,-0.7731,-0.7765,-0.7781,-0.78,-0.7817,-0.7815,-0.7835,-0.7833,-0.7839,-0.7844,-0.7876,-0.7886,-0.787,-0.7924,-0.7911,-0.7915,-0.7917,-0.7921,-0.7925,-0.7922,-0.7861,0,0,0,0,0,-0.7719,-0.774,-0.7756,-0.7785,-0.7792,-0.7803,-0.7816,-0.7818,-0.7835,-0.7842,-0.7855,-0.7872,-0.7893,-0.7908,-0.7928,-0.7964,-0.7969,-0.798,-0.7983,-0.7986,-0.799,-0.801,-0.8015,-0.796,-0.796,-0.796,0,0,-0.7732,-0.7745,-0.7758,-0.7787,-0.7799,-0.7821,-0.7809,-0.7833,-0.7849,-0.7846,-0.7876,-0.7886,-0.7905,-0.7939,-0.7954,-0.7948,-0.8006,-0.7989,-0.7991,-0.7993,-0.8013,-0.8018,-0.8023,-0.7961,-0.7961,-0.7961,0,0,-0.7767,-0.7778,-0.7803,-0.7816,-0.7835,-0.7842,-0.7848,-0.7867,-0.7873,-0.7903,-0.7901,-0.7921,-0.7958,-0.7972,-0.7984,-0.8023,-0.8021,-0.8029,-0.8048,-0.8067,-0.8072,-0.8076,-0.8091,-0.8096,-0.8033,-0.8033,-0.8033,0,-0.778,-0.7813,-0.7817,-0.7841,-0.7853,-0.7851,-0.7876,-0.7889,-0.7914,-0.7923,-0.7915,-0.7961,-0.7974,-0.8011,-0.8021,-0.803,-0.8038,-0.8028,-0.8071,-0.8075,-0.8078,-0.8093,-0.8098,-0.8034,-0.8034,-0.8034,-0.8033,0,-0.7829,-0.7851,-0.7869,-0.7893,-0.7908,-0.7933,-0.7941,-0.7955,-0.7956,-0.7964,-0.7995,-0.801,-0.8034,-0.8042,-0.8044,-0.808,-0.8075,-0.8069,-0.8056,-0.8085,-0.8098,-0.8104,-0.8035,-0.8035,-0.8034,-0.8034,0,0,-0.7872,-0.7897,-0.7904,-0.7915,-0.7935,-0.7953,-0.7977,-0.8,-0.8012,-0.8029,-0.8051,-0.8082,-0.8076,-0.8089,-0.8092,-0.8109,-0.814,-0.8101,-0.8101,-0.8109,-0.8182,-0.8187,-0.8193,-0.8138,-0.8139,-0.814,-0.818,0,-0.791,-0.7953,-0.7957,-0.7996,-0.8017,-0.8014,-0.8035,-0.805,-0.8058,-0.8077,-0.8086,-0.8108,-0.8098,-0.8106,-0.8123,-0.8133,-0.8155,-0.813,-0.8159,-0.816,-0.8156,-0.82,-0.8206,-0.8244,-0.8185,-0.8186,-0.8187,0,-0.796,-0.7978,-0.8019,-0.8036,-0.8045,-0.8064,-0.8085,-0.8103,-0.812,-0.8125,-0.8139,-0.814,-0.8166,-0.815,-0.8186,-0.8169,-0.8181,-0.8188,-0.8189,-0.8193,-0.8176,-0.8207,-0.8255,-0.8262,-0.8195,-0.8195,-0.8194,0,-0.7988,-0.8023,-0.8052,-0.8061,-0.8082,-0.8095,-0.8105,-0.812,-0.8134,-0.8152,-0.8161,-0.8182,-0.8195,-0.8211,-0.8218,-0.8206,-0.8253,-0.8238,-0.8259,-0.8259,-0.827,-0.827,-0.8323,-0.8276,-0.8275,-0.8275,-0.8275,0,-0.8031,-0.8056,-0.8065,-0.8083,-0.8111,-0.8115,-0.8144,-0.8152,-0.8166,-0.8186,-0.8185,-0.8204,-0.821,-0.823,-0.8235,-0.8265,-0.827,-0.8275,-0.8276,-0.8276,-0.8275,-0.8285,-0.8283,-0.8277,-0.8277,-0.8276,-0.8276,0,-0.8068,-0.8075,-0.8107,-0.8123,-0.8128,-0.8148,-0.8163,-0.8181,-0.8187,-0.8212,-0.8219,-0.823,-0.8253,-0.8261,-0.8289,-0.8292,-0.8327,-0.8326,-0.8322,-0.8322,-0.8342,-0.8341,-0.8405,-0.8414,-0.8359,-0.836,-0.836,0,-0.8096,-0.8115,-0.8134,-0.8147,-0.8156,-0.8177,-0.8191,-0.8195,-0.8209,-0.823,-0.8245,-0.8268,-0.8287,-0.8325,-0.8336,-0.8358,-0.8357,-0.8378,-0.8361,-0.836,-0.8359,-0.8359,-0.8361,-0.8382,-0.8382,-0.8383,-0.8383,0,-0.8144,-0.8146,-0.8165,-0.8186,-0.8202,-0.8218,-0.8234,-0.8245,-0.8252,-0.8268,-0.8291,-0.8306,-0.8335,-0.8358,-0.838,-0.839,-0.8388,-0.8388,-0.8394,-0.8395,-0.8392,-0.8395,-0.8332,-0.8387,-0.8387,-0.8387,-0.8386,-0.8386,-0.8178,-0.8195,-0.8211,-0.8233,-0.8245,-0.826,-0.8277,-0.8285,-0.8305,-0.8329,-0.833,-0.8356,-0.8372,-0.8401,-0.8412,-0.8433,-0.8427,-0.8436,-0.8438,-0.8441,-0.8443,-0.8388,-0.8437,-0.8437,-0.8437,-0.8437,-0.8437,0,-0.8227,-0.8237,-0.8257,-0.8279,-0.8296,-0.8291,-0.8308,-0.8323,-0.8346,-0.8361,-0.8379,-0.8406,-0.8429,-0.8441,-0.8463,-0.8477,-0.8477,-0.8483,-0.8483,-0.8486,-0.8446,-0.8439,-0.8483,-0.8483,-0.8483,-0.8483,-0.8483,-0.8483,-0.8255,-0.8284,-0.8288,-0.8323,-0.8333,-0.8358,-0.8368,-0.8382,-0.8394,-0.8425,-0.8443,-0.845,-0.8464,-0.8488,-0.8508,-0.8511,-0.852,-0.8527,-0.853,-0.8493,-0.8488,-0.8484,-0.8477,-0.8529,-0.8529,-0.8568,-0.8568,-0.8568]},{"header":{"parameterUnit":"m.s-1","parameterCategory":1,"la1":30.2991,"la2":30.254,"lo1":-89.0895,"lo2":-89.0444,"dy":0.0017,"dx":0.0017,"nx":28,"ny":28,"refTime":"2024-03-10T03:00:00:Z","depth":0,"parameterNumber":3,"parameterNumberName":"V-component_of_WINDS"},"data":[0,0,0,0,0,0,0,0,0,0,0,0,0,0,0,0,0,0,0,0,0,0,0,0,0,0,0,0,0,0,0,0,0,0,0,0,0,0,0,0,0,0,0,0,0,0,0,0,0,0,0,0,0,0,0,0,0,0,-5.373,-5.3731,0,-5.384,-5.3841,-5.3842,-5.3824,-5.3822,-5.3821,-5.3819,-5.3928,-5.3932,-5.3937,0,0,0,0,0,0,0,0,0,0,0,0,0,-5.3502,-5.3506,-5.373,-5.3731,-5.3733,-5.384,-5.3841,-5.3843,-5.3825,-5.3822,-5.382,-5.3818,-5.3926,-5.3931,-5.3937,0,0,0,0,0,0,0,0,0,0,0,0,0,-5.3605,-5.3507,-5.373,-5.3737,-5.3738,-5.3839,-5.3841,-5.3843,-5.3825,-5.3822,-5.3819,-5.3817,-5.3924,-5.3931,-5.3938,-5.4038,0,0,-5.3959,-5.3962,0,0,0,0,0,0,0,0,-5.3599,-5.3613,-5.3734,-5.3736,-5.3738,-5.3816,-5.3801,-5.3908,-5.3826,-5.3792,-5.3819,-5.3815,-5.3892,-5.3902,-5.3928,-5.4043,-5.4047,-5.396,-5.3964,-5.3967,-5.3969,0,0,0,0,0,0,0,-5.3592,-5.3609,-5.3773,-5.3736,-5.3739,-5.3733,-5.3745,-5.3821,-5.3857,-5.3795,-5.3794,-5.3807,-5.3893,-5.3922,-5.3931,-5.4049,-5.396,-5.3966,-5.397,-5.3973,-5.4253,-5.4256,0,0,0,0,0,0,-5.3583,-5.3603,-5.377,-5.3777,-5.3661,-5.374,-5.3753,-5.3794,-5.3856,-5.3863,-5.381,-5.3806,-5.3911,-5.3923,-5.3935,-5.4057,-5.3967,-5.3974,-5.3978,-5.4249,-5.4253,-5.4257,0,0,0,0,0,0,-5.3578,-5.3598,-5.3765,-5.369,-5.371,-5.3747,-5.3793,-5.3797,-5.3826,-5.3867,-5.3873,-5.3833,-5.3909,-5.3925,-5.4013,-5.4061,-5.3977,-5.3983,-5.4246,-5.4251,-5.4255,-5.4302,0,0,0,0,0,0,-5.3572,-5.3597,-5.3636,-5.3691,-5.3714,-5.3843,-5.3796,-5.3801,-5.3839,-5.3835,-5.389,-5.3897,-5.3908,-5.4003,-5.402,-5.4069,-5.3988,-5.4242,-5.4248,-5.4254,-5.4297,-5.4308,-5.4318,0,0,0,0,0,-5.3564,-5.3643,-5.3638,-5.3658,-5.3764,-5.3845,-5.3859,-5.3872,-5.3843,-5.3882,-5.3908,-5.3895,-5.4053,-5.4012,-5.4031,-5.4083,-5.4239,-5.4246,-5.4253,-5.4292,-5.4306,-5.4318,0,0,0,0,0,0,-5.3591,-5.365,-5.3645,-5.3744,-5.379,-5.3842,-5.3892,-5.3886,-5.394,-5.3934,-5.3947,-5.396,-5.405,-5.4075,-5.4028,-5.4184,-5.4141,-5.4153,-5.4164,-5.4178,-5.4188,-5.4181,-5.3994,0,0,0,0,0,-5.3609,-5.3671,-5.3719,-5.3802,-5.3826,-5.3855,-5.3891,-5.3897,-5.3945,-5.3964,-5.3996,-5.4042,-5.4102,-5.4141,-5.4198,-5.43,-5.4312,-5.4345,-5.4356,-5.4364,-5.4374,-5.4432,-5.4447,-5.4281,-5.4281,-5.4281,0,0,-5.3646,-5.3686,-5.3724,-5.3809,-5.3845,-5.3909,-5.3871,-5.394,-5.3987,-5.3973,-5.406,-5.4085,-5.4137,-5.4233,-5.4277,-5.4257,-5.4423,-5.4374,-5.438,-5.4386,-5.4441,-5.4457,-5.4471,-5.4286,-5.4285,-5.4284,0,0,-5.3746,-5.3782,-5.3857,-5.3895,-5.3951,-5.397,-5.3988,-5.4041,-5.4059,-5.4146,-5.4137,-5.4193,-5.4296,-5.4334,-5.4366,-5.4483,-5.4473,-5.4501,-5.4557,-5.4613,-5.4626,-5.4638,-5.4681,-5.4696,-5.4511,-5.4511,-5.4511,0,-5.3785,-5.3882,-5.3895,-5.3966,-5.4004,-5.3996,-5.4072,-5.4107,-5.4178,-5.4204,-5.4181,-5.4311,-5.4345,-5.4451,-5.448,-5.4506,-5.4527,-5.4495,-5.4623,-5.4635,-5.4646,-5.4688,-5.4704,-5.4514,-5.4514,-5.4513,-5.4513,0,-5.3927,-5.3995,-5.4048,-5.412,-5.4163,-5.4235,-5.426,-5.4302,-5.4305,-5.4327,-5.4416,-5.4457,-5.4523,-5.4548,-5.455,-5.4655,-5.4641,-5.462,-5.4578,-5.4665,-5.4704,-5.472,-5.4518,-5.4517,-5.4516,-5.4516,0,0,-5.4047,-5.4127,-5.4147,-5.418,-5.4242,-5.4294,-5.4366,-5.4433,-5.447,-5.4519,-5.4581,-5.4668,-5.4651,-5.4688,-5.4694,-5.4743,-5.4835,-5.4717,-5.4718,-5.4739,-5.4954,-5.4971,-5.4989,-5.4829,-5.4832,-5.4834,-5.4951,0,-5.4155,-5.4285,-5.43,-5.4415,-5.4478,-5.4472,-5.4535,-5.458,-5.4602,-5.4658,-5.4682,-5.4745,-5.4716,-5.4739,-5.4787,-5.4814,-5.4879,-5.4805,-5.4886,-5.4889,-5.4875,-5.5009,-5.5026,-5.5134,-5.4966,-5.4968,-5.497,0,-5.4298,-5.4354,-5.4476,-5.4532,-5.4559,-5.4615,-5.4679,-5.4732,-5.4783,-5.4796,-5.4839,-5.4839,-5.4914,-5.4868,-5.4971,-5.4921,-5.4955,-5.4973,-5.4978,-5.4987,-5.4936,-5.5023,-5.5168,-5.5185,-5.4994,-5.4992,-5.499,0,-5.4375,-5.4481,-5.4569,-5.4597,-5.4663,-5.4704,-5.4733,-5.4781,-5.4821,-5.4875,-5.4901,-5.4963,-5.4997,-5.5045,-5.5063,-5.5028,-5.5166,-5.5121,-5.5179,-5.5178,-5.5209,-5.5207,-5.5363,-5.5228,-5.5228,-5.5228,-5.5227,0,-5.4495,-5.457,-5.4605,-5.4659,-5.4743,-5.476,-5.4842,-5.4869,-5.4913,-5.4972,-5.4969,-5.5024,-5.5043,-5.5101,-5.5115,-5.5199,-5.5214,-5.5227,-5.523,-5.5228,-5.5227,-5.5251,-5.5244,-5.5232,-5.5231,-5.523,-5.5229,0,-5.4596,-5.4622,-5.4717,-5.4773,-5.4789,-5.4849,-5.4896,-5.4948,-5.497,-5.5045,-5.5063,-5.5097,-5.5166,-5.5188,-5.527,-5.5279,-5.5378,-5.5374,-5.5362,-5.5363,-5.542,-5.5415,-5.5598,-5.5624,-5.5471,-5.5472,-5.5473,0,-5.4671,-5.4729,-5.4792,-5.4832,-5.4864,-5.4928,-5.4969,-5.4988,-5.5031,-5.5094,-5.5138,-5.5207,-5.5263,-5.5372,-5.5404,-5.5467,-5.5465,-5.5525,-5.5474,-5.5471,-5.5468,-5.5465,-5.5471,-5.5534,-5.5536,-5.5537,-5.5538,0,-5.4802,-5.4813,-5.4873,-5.4939,-5.4989,-5.5041,-5.5091,-5.5124,-5.515,-5.5198,-5.5269,-5.5313,-5.5398,-5.5466,-5.5531,-5.5559,-5.5554,-5.5554,-5.5571,-5.5571,-5.5562,-5.5569,-5.5389,-5.555,-5.5549,-5.5548,-5.5547,-5.5547,-5.4894,-5.4946,-5.5,-5.5067,-5.5108,-5.5155,-5.5208,-5.5237,-5.5297,-5.537,-5.5376,-5.5453,-5.5503,-5.559,-5.5622,-5.5682,-5.5665,-5.5689,-5.5696,-5.5702,-5.5707,-5.5552,-5.5694,-5.5694,-5.5693,-5.5693,-5.5693,0,-5.5026,-5.5061,-5.5123,-5.5195,-5.5249,-5.524,-5.5295,-5.5341,-5.5409,-5.5457,-5.5513,-5.5595,-5.5662,-5.5699,-5.5766,-5.5807,-5.5806,-5.5824,-5.5821,-5.5829,-5.5718,-5.5698,-5.5823,-5.5823,-5.5823,-5.5823,-5.5823,-5.5823,-5.5102,-5.5191,-5.5208,-5.5317,-5.535,-5.5428,-5.5461,-5.5504,-5.5543,-5.5636,-5.5692,-5.5717,-5.5761,-5.5831,-5.5891,-5.59,-5.5926,-5.5946,-5.5953,-5.5849,-5.5836,-5.5823,-5.5804,-5.5951,-5.5951,-5.6059,-5.606,-5.6061]}]]